Time,TemperatureF,DewpointF,PressureIn,WindDirection,WindDirectionDegrees,WindSpeedMPH,WindSpeedGustMPH,Humidity,HourlyPrecipIn,Conditions,Clouds,dailyrainin,SoftwareType,DateUTC
2013-05-23 00:00:00,48.1,46.2,29.85,WSW,251,15.4,21.0,93,0.00,,,0.00,VWS V14.01,2013-05-23 04:00:00,
2013-05-23 00:01:00,48.1,46.2,29.85,North,354,19.6,21.0,93,0.00,,,0.00,VWS V14.01,2013-05-23 04:01:00,
2013-05-23 00:06:00,48.5,46.3,29.85,NNW,343,21.0,30.8,92,0.01,,,0.01,VWS V14.01,2013-05-23 04:06:00,
2013-05-23 00:11:00,48.6,46.4,29.85,North,355,12.6,30.8,92,0.01,,,0.01,VWS V14.01,2013-05-23 04:11:00,
2013-05-23 00:16:00,48.7,46.5,29.86,NW,321,14.0,30.8,92,0.01,,,0.01,VWS V14.01,2013-05-23 04:16:00,
2013-05-23 00:21:00,48.5,46.3,29.86,NNE,13,5.6,30.8,92,0.02,,,0.02,VWS V14.01,2013-05-23 04:21:00,
2013-05-23 00:26:00,48.5,46.6,29.86,NNW,341,15.4,30.8,93,0.03,,,0.03,VWS V14.01,2013-05-23 04:26:00,
2013-05-23 00:31:00,48.7,47.0,29.87,North,353,12.6,30.8,94,0.04,,,0.04,VWS V14.01,2013-05-23 04:31:00,
2013-05-23 00:36:00,48.5,46.6,29.87,NNE,16,19.6,30.8,93,0.05,,,0.05,VWS V14.01,2013-05-23 04:36:00,
2013-05-23 00:41:00,48.0,46.1,29.88,NNW,344,12.6,30.8,93,0.06,,,0.06,VWS V14.01,2013-05-23 04:41:00,
2013-05-23 00:46:00,47.6,45.7,29.88,NNE,12,14.0,30.8,93,0.07,,,0.07,VWS V14.01,2013-05-23 04:46:00,
2013-05-23 00:51:00,47.2,45.3,29.88,NNW,343,8.4,30.8,93,0.08,,,0.08,VWS V14.01,2013-05-23 04:51:00,
2013-05-23 00:56:00,46.9,45.3,29.89,NNW,348,7.0,30.8,94,0.09,,,0.09,VWS V14.01,2013-05-23 04:56:00,
2013-05-23 01:00:00,48.0,46.1,29.85,NNW,330,19.6,22.4,93,0.03,,,0.00,VWS V14.01,2013-05-23 05:00:00,
2013-05-23 01:01:00,46.9,45.5,29.89,NW,325,7.0,30.8,95,0.11,,,0.11,VWS V14.01,2013-05-23 05:01:00,
2013-05-23 01:06:00,47.1,45.7,29.89,WNW,293,8.4,30.8,95,0.12,,,0.12,VWS V14.01,2013-05-23 05:06:00,
2013-05-23 01:11:00,47.4,46.0,29.89,NW,322,4.2,30.8,95,0.13,,,0.13,VWS V14.01,2013-05-23 05:11:00,
2013-05-23 01:16:00,47.3,45.9,29.89,NNW,327,4.2,30.8,95,0.13,,,0.13,VWS V14.01,2013-05-23 05:16:00,
2013-05-23 01:21:00,47.1,45.7,29.88,NNW,338,5.6,30.8,95,0.14,,,0.14,VWS V14.01,2013-05-23 05:21:00,
2013-05-23 01:25:00,47.2,45.8,29.89,NW,309,7.0,30.8,95,0.14,,,0.14,VWS V14.01,2013-05-23 05:25:00,
2013-05-23 01:30:00,47.4,46.0,29.89,NNW,333,9.8,30.8,95,0.14,,,0.14,VWS V14.01,2013-05-23 05:30:00,
2013-05-23 01:35:00,47.4,46.0,29.89,NNE,22,11.2,30.8,95,0.15,,,0.15,VWS V14.01,2013-05-23 05:35:00,
2013-05-23 01:40:00,47.3,45.7,29.89,North,349,21.0,30.8,94,0.15,,,0.15,VWS V14.01,2013-05-23 05:40:00,
2013-05-23 01:45:00,47.0,45.1,29.89,North,1,9.8,30.8,93,0.15,,,0.15,VWS V14.01,2013-05-23 05:45:00,
2013-05-23 01:50:00,46.8,44.9,29.89,North,11,15.4,30.8,93,0.15,,,0.15,VWS V14.01,2013-05-23 05:50:00,
2013-05-23 01:55:00,46.5,44.6,29.89,NNE,22,8.4,30.8,93,0.15,,,0.15,VWS V14.01,2013-05-23 05:55:00,
2013-05-23 02:00:00,46.4,44.5,29.89,North,349,11.2,18.2,93,0.01,,,0.16,VWS V14.01,2013-05-23 06:00:00,
2013-05-23 02:05:00,46.3,44.7,29.89,North,1,11.2,19.6,94,0.01,,,0.16,VWS V14.01,2013-05-23 06:05:00,
2013-05-23 02:10:00,46.0,44.1,29.89,WSW,252,9.8,19.6,93,0.01,,,0.16,VWS V14.01,2013-05-23 06:10:00,
2013-05-23 02:15:00,45.7,44.1,29.90,NNW,338,5.6,19.6,94,0.01,,,0.16,VWS V14.01,2013-05-23 06:15:00,
2013-05-23 02:20:00,45.5,43.9,29.90,NNW,328,9.8,19.6,94,0.01,,,0.16,VWS V14.01,2013-05-23 06:20:00,
2013-05-23 02:25:00,45.4,43.8,29.90,North,358,9.8,19.6,94,0.02,,,0.17,VWS V14.01,2013-05-23 06:25:00,
2013-05-23 02:30:00,45.1,43.5,29.90,WNW,287,7.0,22.4,94,0.02,,,0.17,VWS V14.01,2013-05-23 06:30:00,
2013-05-23 02:35:00,44.9,43.0,29.90,NNW,328,7.0,22.4,93,0.02,,,0.17,VWS V14.01,2013-05-23 06:35:00,
2013-05-23 02:40:00,44.8,43.2,29.90,NNW,341,4.2,22.4,94,0.02,,,0.17,VWS V14.01,2013-05-23 06:40:00,
2013-05-23 02:45:00,44.8,42.9,29.91,North,4,7.0,22.4,93,0.03,,,0.18,VWS V14.01,2013-05-23 06:45:00,
2013-05-23 02:50:00,44.5,42.3,29.91,North,9,5.6,22.4,92,0.03,,,0.18,VWS V14.01,2013-05-23 06:50:00,
2013-05-23 02:55:00,43.9,42.0,29.91,North,360,5.6,22.4,93,0.03,,,0.18,VWS V14.01,2013-05-23 06:55:00,
2013-05-23 03:00:00,43.8,42.2,29.91,NNW,339,9.8,22.4,94,0.03,,,0.18,VWS V14.01,2013-05-23 07:00:00,
2013-05-23 03:05:00,43.8,42.2,29.91,NNW,339,1.4,22.4,94,0.04,,,0.19,VWS V14.01,2013-05-23 07:05:00,
2013-05-23 03:10:00,43.7,42.1,29.91,NNW,329,5.6,22.4,94,0.04,,,0.19,VWS V14.01,2013-05-23 07:10:00,
2013-05-23 03:15:00,43.6,42.0,29.91,NW,316,9.8,22.4,94,0.04,,,0.19,VWS V14.01,2013-05-23 07:15:00,
2013-05-23 03:20:00,43.5,41.9,29.91,NNW,327,9.8,22.4,94,0.05,,,0.20,VWS V14.01,2013-05-23 07:20:00,
2013-05-23 03:25:00,43.4,41.8,29.91,NNW,348,9.8,22.4,94,0.05,,,0.20,VWS V14.01,2013-05-23 07:25:00,
2013-05-23 03:30:00,43.3,41.7,29.91,NW,310,4.2,22.4,94,0.06,,,0.21,VWS V14.01,2013-05-23 07:30:00,
2013-05-23 03:35:00,43.1,41.5,29.91,NNW,340,4.2,22.4,94,0.06,,,0.21,VWS V14.01,2013-05-23 07:35:00,
2013-05-23 03:40:00,42.9,41.3,29.91,NNW,348,5.6,22.4,94,0.07,,,0.22,VWS V14.01,2013-05-23 07:40:00,
2013-05-23 03:45:00,42.9,41.3,29.92,SSW,205,2.8,22.4,94,0.07,,,0.22,VWS V14.01,2013-05-23 07:45:00,
2013-05-23 03:50:00,42.8,41.2,29.92,NNW,347,8.4,22.4,94,0.07,,,0.22,VWS V14.01,2013-05-23 07:50:00,
2013-05-23 03:51:00,42.8,41.2,29.92,WNW,293,4.2,22.4,94,0.07,,,0.22,VWS V14.01,2013-05-23 07:51:00,
2013-05-23 03:56:00,42.7,41.1,29.92,NNW,345,5.6,22.4,94,0.08,,,0.23,VWS V14.01,2013-05-23 07:56:00,
2013-05-23 04:00:00,42.6,41.0,29.92,North,351,2.8,22.4,94,0.08,,,0.23,VWS V14.01,2013-05-23 08:00:00,
2013-05-23 04:01:00,42.5,40.9,29.92,North,349,4.2,7.0,94,0.00,,,0.23,VWS V14.01,2013-05-23 08:01:00,
2013-05-23 04:06:00,42.4,40.8,29.92,NNW,334,5.6,14.0,94,0.00,,,0.23,VWS V14.01,2013-05-23 08:06:00,
2013-05-23 04:11:00,42.2,40.6,29.92,NW,325,8.4,14.0,94,0.00,,,0.23,VWS V14.01,2013-05-23 08:11:00,
2013-05-23 04:16:00,42.1,40.2,29.92,North,352,8.4,14.0,93,0.00,,,0.23,VWS V14.01,2013-05-23 08:16:00,
2013-05-23 04:21:00,42.0,40.1,29.92,NNE,16,11.2,18.2,93,0.00,,,0.23,VWS V14.01,2013-05-23 08:21:00,
2013-05-23 04:26:00,41.9,40.0,29.92,NNW,327,11.2,18.2,93,0.00,,,0.23,VWS V14.01,2013-05-23 08:26:00,
2013-05-23 04:31:00,41.8,39.9,29.92,North,360,7.0,18.2,93,0.01,,,0.24,VWS V14.01,2013-05-23 08:31:00,
2013-05-23 04:36:00,41.8,39.9,29.92,North,1,16.8,18.2,93,0.01,,,0.24,VWS V14.01,2013-05-23 08:36:00,
2013-05-23 04:41:00,41.7,39.8,29.92,NW,307,8.4,18.2,93,0.01,,,0.24,VWS V14.01,2013-05-23 08:41:00,
2013-05-23 04:46:00,41.6,39.7,29.93,NW,325,7.0,18.2,93,0.01,,,0.24,VWS V14.01,2013-05-23 08:46:00,
2013-05-23 04:51:00,41.5,39.6,29.93,NNW,334,7.0,18.2,93,0.01,,,0.24,VWS V14.01,2013-05-23 08:51:00,
2013-05-23 04:56:00,41.4,39.5,29.93,NNW,338,11.2,18.2,93,0.01,,,0.24,VWS V14.01,2013-05-23 08:56:00,
2013-05-23 05:00:00,42.6,41.0,29.92,North,351,2.8,22.4,94,0.08,,,0.23,VWS V14.01,2013-05-23 09:00:00,
2013-05-23 05:01:00,41.4,39.5,29.93,NNW,345,9.8,19.6,93,0.01,,,0.24,VWS V14.01,2013-05-23 09:01:00,
2013-05-23 05:06:00,41.3,39.4,29.93,WSW,252,5.6,19.6,93,0.01,,,0.24,VWS V14.01,2013-05-23 09:06:00,
2013-05-23 05:11:00,41.2,39.3,29.93,West,262,11.2,19.6,93,0.02,,,0.25,VWS V14.01,2013-05-23 09:11:00,
2013-05-23 05:16:00,41.0,39.1,29.94,NW,314,11.2,21.0,93,0.02,,,0.25,VWS V14.01,2013-05-23 09:16:00,
2013-05-23 05:21:00,40.8,38.9,29.94,NNW,338,7.0,21.0,93,0.03,,,0.26,VWS V14.01,2013-05-23 09:21:00,
2013-05-23 05:26:00,40.8,38.9,29.94,WNW,290,8.4,21.0,93,0.03,,,0.26,VWS V14.01,2013-05-23 09:26:00,
2013-05-23 05:31:00,40.8,39.2,29.94,NNE,16,8.4,21.0,94,0.04,,,0.27,VWS V14.01,2013-05-23 09:31:00,
2013-05-23 05:36:00,40.7,38.8,29.94,NNW,348,9.8,21.0,93,0.04,,,0.27,VWS V14.01,2013-05-23 09:36:00,
2013-05-23 05:41:00,40.6,38.7,29.94,NW,324,5.6,21.0,93,0.04,,,0.27,VWS V14.01,2013-05-23 09:41:00,
2013-05-23 05:46:00,40.7,39.1,29.94,ENE,65,5.6,21.0,94,0.04,,,0.27,VWS V14.01,2013-05-23 09:46:00,
2013-05-23 05:51:00,40.8,38.9,29.95,North,350,4.2,21.0,93,0.04,,,0.27,VWS V14.01,2013-05-23 09:51:00,
2013-05-23 05:56:00,40.7,38.8,29.95,NW,316,4.2,21.0,93,0.04,,,0.27,VWS V14.01,2013-05-23 09:56:00,
2013-05-23 05:59:00,40.7,38.6,29.95,NNW,345,14.0,19.6,92,0.00,,,0.27,VWS V14.01,2013-05-23 09:59:00,
2013-05-23 06:00:00,40.7,38.6,29.95,NNW,331,16.8,21.0,92,0.04,,,0.27,VWS V14.01,2013-05-23 10:00:00,
2013-05-23 06:04:00,40.7,38.6,29.95,NNE,20,8.4,19.6,92,0.00,,,0.27,VWS V14.01,2013-05-23 10:04:00,
2013-05-23 06:09:00,40.7,38.6,29.96,NNW,327,5.6,19.6,92,0.00,,,0.27,VWS V14.01,2013-05-23 10:09:00,
2013-05-23 06:14:00,40.8,38.7,29.96,NW,308,4.2,19.6,92,0.00,,,0.27,VWS V14.01,2013-05-23 10:14:00,
2013-05-23 06:19:00,40.8,38.7,29.96,NNE,32,4.2,19.6,92,0.00,,,0.27,VWS V14.01,2013-05-23 10:19:00,
2013-05-23 06:24:00,40.9,38.8,29.96,NNE,21,4.2,19.6,92,0.00,,,0.27,VWS V14.01,2013-05-23 10:24:00,
2013-05-23 06:29:00,40.9,38.5,29.96,NW,319,1.4,19.6,91,0.00,,,0.27,VWS V14.01,2013-05-23 10:29:00,
2013-05-23 06:34:00,40.9,38.5,29.97,NNW,346,8.4,19.6,91,0.00,,,0.27,VWS V14.01,2013-05-23 10:34:00,
2013-05-23 06:39:00,40.7,38.0,29.97,WNW,294,7.0,19.6,90,0.00,,,0.27,VWS V14.01,2013-05-23 10:39:00,
2013-05-23 06:44:00,40.7,38.0,29.97,NNW,345,5.6,19.6,90,0.00,,,0.27,VWS V14.01,2013-05-23 10:44:00,
2013-05-23 06:49:00,40.5,37.8,29.98,NNW,328,8.4,19.6,90,0.00,,,0.27,VWS V14.01,2013-05-23 10:49:00,
2013-05-23 06:54:00,40.2,37.2,29.98,North,6,14.0,19.6,89,0.00,,,0.27,VWS V14.01,2013-05-23 10:54:00,
2013-05-23 06:59:00,40.1,37.4,29.98,NNE,26,9.8,19.6,90,0.00,,,0.27,VWS V14.01,2013-05-23 10:59:00,
2013-05-23 07:00:00,40.7,38.6,29.95,NNW,331,16.8,21.0,92,0.04,,,0.27,VWS V14.01,2013-05-23 11:00:00,
2013-05-23 07:04:00,39.9,36.9,29.99,NNW,335,7.0,22.4,89,0.00,,,0.27,VWS V14.01,2013-05-23 11:04:00,
2013-05-23 07:09:00,39.8,36.8,29.99,NNW,329,8.4,22.4,89,0.00,,,0.27,VWS V14.01,2013-05-23 11:09:00,
2013-05-23 07:14:00,39.8,37.1,29.99,NW,316,5.6,22.4,90,0.00,,,0.27,VWS V14.01,2013-05-23 11:14:00,
2013-05-23 07:19:00,39.8,37.1,29.99,NW,319,8.4,22.4,90,0.00,,,0.27,VWS V14.01,2013-05-23 11:19:00,
2013-05-23 07:24:00,39.9,36.9,29.99,NNW,329,9.8,22.4,89,0.00,,,0.27,VWS V14.01,2013-05-23 11:24:00,
2013-05-23 07:29:00,40.0,37.0,30.00,NW,318,9.8,22.4,89,0.00,,,0.27,VWS V14.01,2013-05-23 11:29:00,
2013-05-23 07:34:00,40.0,36.7,30.00,NNW,345,8.4,22.4,88,0.00,,,0.27,VWS V14.01,2013-05-23 11:34:00,
2013-05-23 07:39:00,39.9,36.3,30.00,NNW,336,11.2,22.4,87,0.00,,,0.27,VWS V14.01,2013-05-23 11:39:00,
2013-05-23 07:44:00,39.9,36.3,30.01,NNW,334,14.0,22.4,87,0.00,,,0.27,VWS V14.01,2013-05-23 11:44:00,
2013-05-23 07:49:00,39.8,36.0,30.01,NW,325,9.8,22.4,86,0.00,,,0.27,VWS V14.01,2013-05-23 11:49:00,
2013-05-23 07:54:00,39.8,35.4,30.01,North,351,16.8,22.4,84,0.00,,,0.27,VWS V14.01,2013-05-23 11:54:00,
2013-05-23 07:59:00,39.9,35.8,30.01,NNW,338,15.4,22.4,85,0.00,,,0.27,VWS V14.01,2013-05-23 11:59:00,
2013-05-23 08:00:00,39.9,35.8,30.01,NNE,13,22.4,22.4,85,0.00,,,0.27,VWS V14.01,2013-05-23 12:00:00,
2013-05-23 08:04:00,40.1,36.3,30.02,NNW,342,7.0,16.8,86,0.00,,,0.27,VWS V14.01,2013-05-23 12:04:00,
2013-05-23 08:09:00,40.2,36.3,30.02,NW,322,8.4,18.2,86,0.00,,,0.27,VWS V14.01,2013-05-23 12:09:00,
2013-05-23 08:14:00,40.6,36.5,30.03,NNW,334,11.2,21.0,85,0.00,,,0.27,VWS V14.01,2013-05-23 12:14:00,
2013-05-23 08:19:00,40.8,36.3,30.03,NNW,338,11.2,21.0,84,0.00,,,0.27,VWS V14.01,2013-05-23 12:19:00,
2013-05-23 08:24:00,40.7,36.5,30.03,NNW,339,7.0,21.0,85,0.00,,,0.27,VWS V14.01,2013-05-23 12:24:00,
2013-05-23 08:29:00,40.3,35.9,30.03,NNW,341,11.2,21.0,84,0.00,,,0.27,VWS V14.01,2013-05-23 12:29:00,
2013-05-23 08:34:00,40.1,36.0,30.04,NNW,331,12.6,21.0,85,0.00,,,0.27,VWS V14.01,2013-05-23 12:34:00,
2013-05-23 08:39:00,40.0,35.6,30.04,North,8,15.4,25.2,84,0.00,,,0.27,VWS V14.01,2013-05-23 12:39:00,
2013-05-23 08:44:00,40.2,36.1,30.04,NNW,336,11.2,25.2,85,0.00,,,0.27,VWS V14.01,2013-05-23 12:44:00,
2013-05-23 08:49:00,40.5,36.0,30.04,North,351,14.0,25.2,84,0.00,,,0.27,VWS V14.01,2013-05-23 12:49:00,
2013-05-23 08:54:00,40.4,35.3,30.05,WSW,253,11.2,25.2,82,0.00,,,0.27,VWS V14.01,2013-05-23 12:54:00,
2013-05-23 08:59:00,40.4,35.0,30.05,NNW,330,11.2,25.2,81,0.00,,,0.27,VWS V14.01,2013-05-23 12:59:00,
2013-05-23 09:00:00,39.9,35.8,30.01,NNE,13,22.4,22.4,85,0.00,,,0.27,VWS V14.01,2013-05-23 13:00:00,
2013-05-23 09:04:00,40.3,34.3,30.05,West,280,14.0,26.6,79,0.00,,,0.27,VWS V14.01,2013-05-23 13:04:00,
2013-05-23 09:09:00,40.5,34.8,30.06,WNW,285,5.6,26.6,80,0.00,,,0.27,VWS V14.01,2013-05-23 13:09:00,
2013-05-23 09:14:00,40.3,34.6,30.06,NNW,340,19.6,28.0,80,0.00,,,0.27,VWS V14.01,2013-05-23 13:14:00,
2013-05-23 09:19:00,40.0,34.0,30.06,NNE,16,12.6,28.0,79,0.00,,,0.27,VWS V14.01,2013-05-23 13:19:00,
2013-05-23 09:24:00,39.7,33.4,30.06,NW,326,16.8,29.4,78,0.00,,,0.27,VWS V14.01,2013-05-23 13:24:00,
2013-05-23 09:29:00,39.8,34.1,30.06,NNE,21,14.0,33.6,80,0.00,,,0.27,VWS V14.01,2013-05-23 13:29:00,
2013-05-23 09:34:00,40.0,33.1,30.06,NNW,338,22.4,33.6,76,0.00,,,0.27,VWS V14.01,2013-05-23 13:34:00,
2013-05-23 09:39:00,40.1,32.8,30.07,NNW,338,19.6,33.6,75,0.00,,,0.27,VWS V14.01,2013-05-23 13:39:00,
2013-05-23 09:44:00,40.3,33.7,30.07,North,1,15.4,33.6,77,0.00,,,0.27,VWS V14.01,2013-05-23 13:44:00,
2013-05-23 09:49:00,40.3,33.3,30.07,NNW,336,19.6,33.6,76,0.00,,,0.27,VWS V14.01,2013-05-23 13:49:00,
2013-05-23 09:54:00,40.0,32.4,30.07,North,11,21.0,33.6,74,0.00,,,0.27,VWS V14.01,2013-05-23 13:54:00,
2013-05-23 09:59:00,39.7,32.1,30.08,WNW,295,12.6,33.6,74,0.00,,,0.27,VWS V14.01,2013-05-23 13:59:00,
2013-05-23 10:00:00,39.7,32.1,30.08,WNW,295,12.6,33.6,74,0.00,,,0.27,VWS V14.01,2013-05-23 14:00:00,
2013-05-23 10:04:00,40.0,32.4,30.08,North,351,16.8,32.2,74,0.00,,,0.27,VWS V14.01,2013-05-23 14:04:00,
2013-05-23 10:09:00,40.4,33.5,30.08,SW,215,11.2,32.2,76,0.00,,,0.27,VWS V14.01,2013-05-23 14:09:00,
2013-05-23 10:14:00,40.7,32.4,30.09,NNE,18,26.6,32.2,72,0.00,,,0.27,VWS V14.01,2013-05-23 14:14:00,
2013-05-23 10:19:00,40.6,32.0,30.09,NW,316,12.6,32.2,71,0.00,,,0.27,VWS V14.01,2013-05-23 14:19:00,
2013-05-23 10:24:00,40.5,31.9,30.09,NNE,12,19.6,32.2,71,0.00,,,0.27,VWS V14.01,2013-05-23 14:24:00,
2013-05-23 10:29:00,40.6,32.3,30.09,NW,326,11.2,32.2,72,0.00,,,0.27,VWS V14.01,2013-05-23 14:29:00,
2013-05-23 10:34:00,41.1,32.4,30.09,NNW,339,16.8,32.2,71,0.00,,,0.27,VWS V14.01,2013-05-23 14:34:00,
2013-05-23 10:39:00,41.8,32.4,30.10,North,351,18.2,35.0,69,0.00,,,0.27,VWS V14.01,2013-05-23 14:39:00,
2013-05-23 10:44:00,42.3,33.6,30.10,North,357,9.8,35.0,71,0.00,,,0.27,VWS V14.01,2013-05-23 14:44:00,
2013-05-23 10:49:00,42.8,33.7,30.10,North,359,22.4,35.0,70,0.00,,,0.27,VWS V14.01,2013-05-23 14:49:00,
2013-05-23 10:54:00,43.5,33.7,30.10,North,1,8.4,35.0,68,0.00,,,0.27,VWS V14.01,2013-05-23 14:54:00,
2013-05-23 10:59:00,43.6,33.8,30.10,NW,322,15.4,35.0,68,0.00,,,0.27,VWS V14.01,2013-05-23 14:59:00,
2013-05-23 11:00:00,39.7,32.1,30.08,WNW,295,12.6,33.6,74,0.00,,,0.27,VWS V14.01,2013-05-23 15:00:00,
2013-05-23 11:04:00,43.5,32.5,30.10,WSW,252,18.2,35.0,65,0.00,,,0.27,VWS V14.01,2013-05-23 15:04:00,
2013-05-23 11:09:00,43.1,32.9,30.10,NNW,335,18.2,35.0,67,0.00,,,0.27,VWS V14.01,2013-05-23 15:09:00,
2013-05-23 11:14:00,42.9,33.1,30.11,NNW,346,19.6,35.0,68,0.00,,,0.27,VWS V14.01,2013-05-23 15:14:00,
2013-05-23 11:19:00,42.7,33.2,30.11,North,6,16.8,35.0,69,0.00,,,0.27,VWS V14.01,2013-05-23 15:19:00,
2013-05-23 11:24:00,43.4,33.6,30.11,West,263,16.8,35.0,68,0.00,,,0.27,VWS V14.01,2013-05-23 15:24:00,
2013-05-23 11:29:00,43.8,34.3,30.11,NNW,335,25.2,35.0,69,0.00,,,0.27,VWS V14.01,2013-05-23 15:29:00,
2013-05-23 11:34:00,43.6,35.5,30.11,West,279,12.6,35.0,73,0.00,,,0.27,VWS V14.01,2013-05-23 15:34:00,
2013-05-23 11:39:00,43.7,34.6,30.11,NNW,345,23.8,35.0,70,0.00,,,0.27,VWS V14.01,2013-05-23 15:39:00,
2013-05-23 11:44:00,43.4,33.9,30.11,ESE,105,11.2,35.0,69,0.00,,,0.27,VWS V14.01,2013-05-23 15:44:00,
2013-05-23 11:49:00,44.2,35.4,30.12,NW,316,19.6,35.0,71,0.00,,,0.27,VWS V14.01,2013-05-23 15:49:00,
2013-05-23 11:54:00,44.3,34.4,30.12,NW,312,18.2,35.0,68,0.00,,,0.27,VWS V14.01,2013-05-23 15:54:00,
2013-05-23 11:59:00,43.7,34.2,30.12,North,1,28.0,35.0,69,0.00,,,0.27,VWS V14.01,2013-05-23 15:59:00,
2013-05-23 12:00:00,43.6,34.1,30.12,North,357,26.6,35.0,69,0.00,,,0.27,VWS V14.01,2013-05-23 16:00:00,
2013-05-23 12:04:00,43.4,34.6,30.12,NNW,344,12.6,26.6,71,0.00,,,0.27,VWS V14.01,2013-05-23 16:04:00,
2013-05-23 12:09:00,43.3,34.9,30.12,NNW,329,14.0,32.2,72,0.00,,,0.27,VWS V14.01,2013-05-23 16:09:00,
2013-05-23 12:14:00,43.6,35.2,30.13,SSW,203,4.2,32.2,72,0.00,,,0.27,VWS V14.01,2013-05-23 16:14:00,
2013-05-23 12:19:00,44.2,35.0,30.13,North,354,12.6,32.2,70,0.00,,,0.27,VWS V14.01,2013-05-23 16:19:00,
2013-05-23 12:24:00,44.1,35.0,30.13,NW,325,15.4,32.2,70,0.00,,,0.27,VWS V14.01,2013-05-23 16:24:00,
2013-05-23 12:29:00,44.1,34.2,30.13,NNW,328,18.2,32.2,68,0.00,,,0.27,VWS V14.01,2013-05-23 16:29:00,
2013-05-23 12:34:00,44.6,35.4,30.13,NW,321,12.6,32.2,70,0.00,,,0.27,VWS V14.01,2013-05-23 16:34:00,
2013-05-23 12:39:00,44.7,34.8,30.13,NNW,344,11.2,33.6,68,0.00,,,0.27,VWS V14.01,2013-05-23 16:39:00,
2013-05-23 12:44:00,44.0,34.5,30.13,NNW,339,15.4,35.0,69,0.00,,,0.27,VWS V14.01,2013-05-23 16:44:00,
2013-05-23 12:49:00,42.9,33.4,30.13,West,280,12.6,35.0,69,0.00,,,0.27,VWS V14.01,2013-05-23 16:49:00,
2013-05-23 12:54:00,42.9,33.8,30.14,West,262,14.0,35.0,70,0.00,,,0.27,VWS V14.01,2013-05-23 16:54:00,
2013-05-23 12:59:00,43.4,33.9,30.14,NNE,19,12.6,35.0,69,0.00,,,0.27,VWS V14.01,2013-05-23 16:59:00,
2013-05-23 13:00:00,43.6,34.1,30.12,North,357,26.6,35.0,69,0.00,,,0.27,VWS V14.01,2013-05-23 17:00:00,
2013-05-23 13:04:00,44.2,34.7,30.14,NNW,333,19.6,35.0,69,0.00,,,0.27,VWS V14.01,2013-05-23 17:04:00,
2013-05-23 13:09:00,44.5,34.6,30.14,NW,322,18.2,35.0,68,0.00,,,0.27,VWS V14.01,2013-05-23 17:09:00,
2013-05-23 13:14:00,44.1,34.2,30.14,NNW,336,14.0,35.0,68,0.00,,,0.27,VWS V14.01,2013-05-23 17:14:00,
2013-05-23 13:19:00,43.6,33.8,30.14,North,6,19.6,35.0,68,0.00,,,0.27,VWS V14.01,2013-05-23 17:19:00,
2013-05-23 13:24:00,44.1,34.6,30.14,NNW,334,26.6,35.0,69,0.00,,,0.27,VWS V14.01,2013-05-23 17:24:00,
2013-05-23 13:29:00,44.2,35.0,30.14,West,269,12.6,35.0,70,0.00,,,0.27,VWS V14.01,2013-05-23 17:29:00,
2013-05-23 13:34:00,43.9,34.8,30.14,NW,317,12.6,35.0,70,0.00,,,0.27,VWS V14.01,2013-05-23 17:34:00,
2013-05-23 13:39:00,43.2,34.1,30.14,ESE,113,5.6,35.0,70,0.00,,,0.27,VWS V14.01,2013-05-23 17:39:00,
2013-05-23 13:44:00,43.3,34.2,30.14,NNW,329,22.4,35.0,70,0.00,,,0.27,VWS V14.01,2013-05-23 17:44:00,
2013-05-23 13:49:00,43.7,34.9,30.14,ESE,111,16.8,36.4,71,0.00,,,0.27,VWS V14.01,2013-05-23 17:49:00,
2013-05-23 13:54:00,44.7,35.9,30.14,North,1,32.2,36.4,71,0.00,,,0.27,VWS V14.01,2013-05-23 17:54:00,
2013-05-23 13:59:00,44.6,35.1,30.14,NNW,336,18.2,37.8,69,0.00,,,0.27,VWS V14.01,2013-05-23 17:59:00,
2013-05-23 14:00:00,44.6,35.1,30.14,ESE,108,9.8,37.8,69,0.00,,,0.27,VWS V14.01,2013-05-23 18:00:00,
2013-05-23 14:04:00,44.6,34.3,30.15,WSW,238,9.8,32.2,67,0.00,,,0.27,VWS V14.01,2013-05-23 18:04:00,
2013-05-23 14:09:00,45.0,34.7,30.14,NW,315,28.0,32.2,67,0.00,,,0.27,VWS V14.01,2013-05-23 18:09:00,
2013-05-23 14:14:00,44.9,35.4,30.15,WNW,290,9.8,43.4,69,0.00,,,0.27,VWS V14.01,2013-05-23 18:14:00,
2013-05-23 14:19:00,44.7,35.5,30.15,NW,310,21.0,43.4,70,0.00,,,0.27,VWS V14.01,2013-05-23 18:19:00,
2013-05-23 14:24:00,44.3,35.2,30.15,NW,316,18.2,43.4,70,0.00,,,0.27,VWS V14.01,2013-05-23 18:24:00,
2013-05-23 14:29:00,45.0,35.5,30.15,NNE,22,19.6,43.4,69,0.00,,,0.27,VWS V14.01,2013-05-23 18:29:00,
2013-05-23 14:34:00,45.6,35.7,30.15,North,350,12.6,43.4,68,0.00,,,0.27,VWS V14.01,2013-05-23 18:34:00,
2013-05-23 14:39:00,46.0,36.4,30.15,East,82,26.6,43.4,69,0.00,,,0.27,VWS V14.01,2013-05-23 18:39:00,
2013-05-23 14:44:00,46.1,36.1,30.15,NW,311,28.0,43.4,68,0.00,,,0.27,VWS V14.01,2013-05-23 18:44:00,
2013-05-23 14:49:00,45.2,35.7,30.15,NNW,337,14.0,43.4,69,0.00,,,0.27,VWS V14.01,2013-05-23 18:49:00,
2013-05-23 14:54:00,45.1,35.2,30.15,North,351,11.2,43.4,68,0.00,,,0.27,VWS V14.01,2013-05-23 18:54:00,
2013-05-23 14:59:00,44.8,34.5,30.15,WNW,290,8.4,43.4,67,0.00,,,0.27,VWS V14.01,2013-05-23 18:59:00,
2013-05-23 15:00:00,44.6,35.1,30.14,ESE,108,9.8,37.8,69,0.00,,,0.27,VWS V14.01,2013-05-23 19:00:00,
2013-05-23 15:04:00,44.7,35.5,30.15,North,356,28.0,43.4,70,0.00,,,0.27,VWS V14.01,2013-05-23 19:04:00,
2013-05-23 15:09:00,45.2,36.0,30.15,NNW,337,12.6,43.4,70,0.00,,,0.27,VWS V14.01,2013-05-23 19:09:00,
2013-05-23 15:14:00,45.8,36.2,30.15,North,8,23.8,43.4,69,0.00,,,0.27,VWS V14.01,2013-05-23 19:14:00,
2013-05-23 15:19:00,45.7,36.5,30.16,NNW,334,25.2,43.4,70,0.00,,,0.27,VWS V14.01,2013-05-23 19:19:00,
2013-05-23 15:24:00,45.4,35.8,30.16,West,273,25.2,43.4,69,0.00,,,0.27,VWS V14.01,2013-05-23 19:24:00,
2013-05-23 15:29:00,45.2,36.0,30.16,NNW,332,19.6,43.4,70,0.00,,,0.27,VWS V14.01,2013-05-23 19:29:00,
2013-05-23 15:34:00,44.6,36.2,30.15,NNE,18,25.2,43.4,72,0.00,,,0.27,VWS V14.01,2013-05-23 19:34:00,
2013-05-23 15:39:00,44.7,35.9,30.16,ENE,72,11.2,43.4,71,0.00,,,0.27,VWS V14.01,2013-05-23 19:39:00,
2013-05-23 15:44:00,44.8,36.0,30.16,WNW,299,18.2,43.4,71,0.00,,,0.27,VWS V14.01,2013-05-23 19:44:00,
2013-05-23 15:49:00,45.1,36.3,30.16,NNW,332,15.4,43.4,71,0.00,,,0.27,VWS V14.01,2013-05-23 19:49:00,
2013-05-23 15:54:00,45.2,35.7,30.16,East,81,12.6,43.4,69,0.00,,,0.27,VWS V14.01,2013-05-23 19:54:00,
2013-05-23 15:59:00,45.3,35.7,30.15,NNE,20,16.8,43.4,69,0.00,,,0.27,VWS V14.01,2013-05-23 19:59:00,
2013-05-23 16:00:00,45.3,35.4,30.15,NW,308,18.2,43.4,68,0.00,,,0.27,VWS V14.01,2013-05-23 20:00:00,
2013-05-23 16:04:00,45.5,35.6,30.15,NW,323,28.0,33.6,68,0.00,,,0.27,VWS V14.01,2013-05-23 20:04:00,
2013-05-23 16:09:00,46.1,36.1,30.16,SSW,197,9.8,33.6,68,0.00,,,0.27,VWS V14.01,2013-05-23 20:09:00,
2013-05-23 16:14:00,46.1,36.1,30.16,ENE,64,12.6,33.6,68,0.00,,,0.27,VWS V14.01,2013-05-23 20:14:00,
2013-05-23 16:19:00,46.0,36.0,30.16,North,11,23.8,33.6,68,0.00,,,0.27,VWS V14.01,2013-05-23 20:19:00,
2013-05-23 16:24:00,46.4,36.8,30.16,NNW,328,12.6,33.6,69,0.00,,,0.27,VWS V14.01,2013-05-23 20:24:00,
2013-05-23 16:29:00,46.1,35.8,30.16,North,1,21.0,35.0,67,0.00,,,0.27,VWS V14.01,2013-05-23 20:29:00,
2013-05-23 16:34:00,46.2,36.6,30.16,WNW,287,14.0,35.0,69,0.00,,,0.27,VWS V14.01,2013-05-23 20:34:00,
2013-05-23 16:39:00,45.9,35.6,30.16,NNW,334,16.8,35.0,67,0.00,,,0.27,VWS V14.01,2013-05-23 20:39:00,
2013-05-23 16:44:00,46.3,36.0,30.16,NNW,330,15.4,35.0,67,0.00,,,0.27,VWS V14.01,2013-05-23 20:44:00,
2013-05-23 16:49:00,45.9,36.0,30.16,NNW,341,21.0,35.0,68,0.00,,,0.27,VWS V14.01,2013-05-23 20:49:00,
2013-05-23 16:54:00,45.8,35.8,30.16,NNW,329,25.2,35.0,68,0.00,,,0.27,VWS V14.01,2013-05-23 20:54:00,
2013-05-23 16:59:00,45.8,35.8,30.16,NW,321,22.4,35.0,68,0.00,,,0.27,VWS V14.01,2013-05-23 20:59:00,
2013-05-23 17:00:00,45.3,35.4,30.15,NW,308,18.2,43.4,68,0.00,,,0.27,VWS V14.01,2013-05-23 21:00:00,
2013-05-23 17:04:00,45.7,36.1,30.16,NNW,340,12.6,35.0,69,0.00,,,0.27,VWS V14.01,2013-05-23 21:04:00,
2013-05-23 17:09:00,45.8,35.8,30.16,West,262,8.4,35.0,68,0.00,,,0.27,VWS V14.01,2013-05-23 21:09:00,
2013-05-23 17:14:00,46.0,36.0,30.16,NE,39,9.8,35.0,68,0.00,,,0.27,VWS V14.01,2013-05-23 21:14:00,
2013-05-23 17:19:00,46.1,35.8,30.16,NNW,338,8.4,35.0,67,0.00,,,0.27,VWS V14.01,2013-05-23 21:19:00,
2013-05-23 17:24:00,46.3,35.6,30.16,NNW,340,19.6,35.0,66,0.00,,,0.27,VWS V14.01,2013-05-23 21:24:00,
2013-05-23 17:29:00,46.4,35.7,30.16,NNE,13,18.2,35.0,66,0.00,,,0.27,VWS V14.01,2013-05-23 21:29:00,
2013-05-23 17:34:00,46.3,35.2,30.16,North,351,16.8,35.0,65,0.00,,,0.27,VWS V14.01,2013-05-23 21:34:00,
2013-05-23 17:39:00,46.4,35.3,30.16,NNW,334,16.8,36.4,65,0.00,,,0.27,VWS V14.01,2013-05-23 21:39:00,
2013-05-23 17:44:00,46.1,35.0,30.16,NE,46,18.2,36.4,65,0.00,,,0.27,VWS V14.01,2013-05-23 21:44:00,
2013-05-23 17:49:00,46.0,35.3,30.16,NW,305,26.6,36.4,66,0.00,,,0.27,VWS V14.01,2013-05-23 21:49:00,
2013-05-23 17:54:00,46.1,35.8,30.16,NW,305,30.8,36.4,67,0.00,,,0.27,VWS V14.01,2013-05-23 21:54:00,
2013-05-23 17:59:00,46.1,35.8,30.17,SSE,152,8.4,36.4,67,0.00,,,0.27,VWS V14.01,2013-05-23 21:59:00,
2013-05-23 18:00:00,46.0,35.3,30.17,NNW,338,18.2,36.4,66,0.00,,,0.27,VWS V14.01,2013-05-23 22:00:00,
2013-05-23 18:04:00,45.8,35.1,30.17,SSW,198,9.8,36.4,66,0.00,,,0.27,VWS V14.01,2013-05-23 22:04:00,
2013-05-23 18:09:00,46.0,35.3,30.17,WNW,300,18.2,36.4,66,0.00,,,0.27,VWS V14.01,2013-05-23 22:09:00,
2013-05-23 18:14:00,46.1,35.4,30.17,NNW,327,16.8,36.4,66,0.00,,,0.27,VWS V14.01,2013-05-23 22:14:00,
2013-05-23 18:19:00,45.8,35.1,30.18,NNW,343,23.8,36.4,66,0.00,,,0.27,VWS V14.01,2013-05-23 22:19:00,
2013-05-23 18:24:00,46.0,35.7,30.18,NNW,332,15.4,36.4,67,0.00,,,0.27,VWS V14.01,2013-05-23 22:24:00,
2013-05-23 18:29:00,45.9,34.8,30.18,NE,39,23.8,36.4,65,0.00,,,0.27,VWS V14.01,2013-05-23 22:29:00,
2013-05-23 18:34:00,46.1,35.0,30.18,NW,325,23.8,36.4,65,0.00,,,0.27,VWS V14.01,2013-05-23 22:34:00,
2013-05-23 18:39:00,46.0,34.9,30.18,WNW,298,26.6,36.4,65,0.00,,,0.27,VWS V14.01,2013-05-23 22:39:00,
2013-05-23 18:44:00,46.0,34.9,30.18,NNW,328,35.0,36.4,65,0.00,,,0.27,VWS V14.01,2013-05-23 22:44:00,
2013-05-23 18:49:00,45.9,35.2,30.18,NNW,343,23.8,36.4,66,0.00,,,0.27,VWS V14.01,2013-05-23 22:49:00,
2013-05-23 18:53:00,45.6,35.3,30.18,NNW,340,25.2,37.8,67,0.00,,,0.27,VWS V14.01,2013-05-23 22:53:00,
2013-05-23 18:58:00,45.2,35.3,30.18,NW,324,8.4,37.8,68,0.00,,,0.27,VWS V14.01,2013-05-23 22:58:00,
2013-05-23 19:00:00,46.0,35.3,30.17,NNW,338,18.2,36.4,66,0.00,,,0.27,VWS V14.01,2013-05-23 23:00:00,
2013-05-23 19:03:00,45.1,35.2,30.18,West,265,9.8,37.8,68,0.00,,,0.27,VWS V14.01,2013-05-23 23:03:00,
2013-05-23 19:08:00,44.9,35.4,30.18,NW,305,19.6,37.8,69,0.00,,,0.27,VWS V14.01,2013-05-23 23:08:00,
2013-05-23 19:13:00,44.8,35.6,30.19,NNE,13,25.2,37.8,70,0.00,,,0.27,VWS V14.01,2013-05-23 23:13:00,
2013-05-23 19:18:00,44.9,35.4,30.19,WSW,244,19.6,37.8,69,0.00,,,0.27,VWS V14.01,2013-05-23 23:18:00,
2013-05-23 19:23:00,44.7,35.2,30.19,NE,46,14.0,37.8,69,0.00,,,0.27,VWS V14.01,2013-05-23 23:23:00,
2013-05-23 19:28:00,44.6,35.1,30.19,NW,322,9.8,37.8,69,0.00,,,0.27,VWS V14.01,2013-05-23 23:28:00,
2013-05-23 19:33:00,44.6,35.4,30.20,North,358,9.8,37.8,70,0.00,,,0.27,VWS V14.01,2013-05-23 23:33:00,
2013-05-23 19:38:00,44.5,35.7,30.20,ENE,70,8.4,37.8,71,0.00,,,0.27,VWS V14.01,2013-05-23 23:38:00,
2013-05-23 19:43:00,44.5,35.7,30.20,WNW,288,8.4,37.8,71,0.00,,,0.27,VWS V14.01,2013-05-23 23:43:00,
2013-05-23 19:48:00,44.5,35.7,30.20,NW,321,15.4,37.8,71,0.00,,,0.27,VWS V14.01,2013-05-23 23:48:00,
2013-05-23 19:53:00,44.4,36.0,30.20,WSW,257,22.4,37.8,72,0.00,,,0.27,VWS V14.01,2013-05-23 23:53:00,
2013-05-23 19:58:00,44.3,35.5,30.20,NW,314,11.2,37.8,71,0.00,,,0.27,VWS V14.01,2013-05-23 23:58:00,
2013-05-23 20:00:00,44.3,35.9,30.21,WNW,298,8.4,37.8,72,0.00,,,0.27,VWS V14.01,2013-05-24 00:00:00,
2013-05-23 20:03:00,44.4,36.0,30.21,NNE,19,18.2,22.4,72,0.00,,,0.27,VWS V14.01,2013-05-24 00:03:00,
2013-05-23 20:08:00,44.3,35.9,30.21,NNW,327,9.8,22.4,72,0.00,,,0.27,VWS V14.01,2013-05-24 00:08:00,
2013-05-23 20:13:00,44.1,36.0,30.21,NNW,327,9.8,22.4,73,0.00,,,0.27,VWS V14.01,2013-05-24 00:13:00,
2013-05-23 20:18:00,44.1,35.3,30.21,North,354,11.2,23.8,71,0.00,,,0.27,VWS V14.01,2013-05-24 00:18:00,
2013-05-23 20:23:00,44.1,35.3,30.22,NNW,341,12.6,23.8,71,0.00,,,0.27,VWS V14.01,2013-05-24 00:23:00,
2013-05-23 20:28:00,44.1,35.3,30.22,NW,322,14.0,32.2,71,0.00,,,0.27,VWS V14.01,2013-05-24 00:28:00,
2013-05-23 20:33:00,44.0,35.2,30.22,NNW,340,9.8,32.2,71,0.00,,,0.27,VWS V14.01,2013-05-24 00:33:00,
2013-05-23 20:38:00,44.0,34.5,30.22,NNW,334,5.6,32.2,69,0.00,,,0.27,VWS V14.01,2013-05-24 00:38:00,
2013-05-23 20:43:00,44.0,34.5,30.23,NW,321,8.4,32.2,69,0.00,,,0.27,VWS V14.01,2013-05-24 00:43:00,
2013-05-23 20:48:00,43.8,34.7,30.23,NW,316,8.4,32.2,70,0.00,,,0.27,VWS V14.01,2013-05-24 00:48:00,
2013-05-23 20:53:00,43.4,34.6,30.23,NNW,335,14.0,32.2,71,0.00,,,0.27,VWS V14.01,2013-05-24 00:53:00,
2013-05-23 20:58:00,42.8,35.1,30.23,WNW,290,15.4,32.2,74,0.00,,,0.27,VWS V14.01,2013-05-24 00:58:00,
2013-05-23 21:00:00,44.3,35.9,30.21,WNW,298,8.4,37.8,72,0.00,,,0.27,VWS V14.01,2013-05-24 01:00:00,
2013-05-23 21:03:00,42.1,35.4,30.23,NNW,343,9.8,32.2,77,0.00,,,0.27,VWS V14.01,2013-05-24 01:03:00,
2013-05-23 21:08:00,41.5,35.2,30.23,SSW,212,9.8,32.2,78,0.00,,,0.27,VWS V14.01,2013-05-24 01:08:00,
2013-05-23 21:13:00,41.1,35.4,30.23,NNW,340,9.8,32.2,80,0.00,,,0.27,VWS V14.01,2013-05-24 01:13:00,
2013-05-23 21:18:00,41.0,35.0,30.23,West,271,9.8,32.2,79,0.00,,,0.27,VWS V14.01,2013-05-24 01:18:00,
2013-05-23 21:23:00,41.0,35.0,30.24,NNW,339,14.0,32.2,79,0.00,,,0.27,VWS V14.01,2013-05-24 01:23:00,
2013-05-23 21:28:00,41.0,35.0,30.24,North,349,11.2,32.2,79,0.00,,,0.27,VWS V14.01,2013-05-24 01:28:00,
2013-05-23 21:33:00,40.8,34.8,30.24,North,6,5.6,32.2,79,0.00,,,0.27,VWS V14.01,2013-05-24 01:33:00,
2013-05-23 21:38:00,40.7,35.0,30.24,NW,322,9.8,32.2,80,0.00,,,0.27,VWS V14.01,2013-05-24 01:38:00,
2013-05-23 21:43:00,40.7,35.0,30.24,NNW,345,5.6,32.2,80,0.00,,,0.27,VWS V14.01,2013-05-24 01:43:00,
2013-05-23 21:48:00,40.7,35.3,30.24,SW,224,12.6,32.2,81,0.00,,,0.27,VWS V14.01,2013-05-24 01:48:00,
2013-05-23 21:53:00,40.7,35.3,30.25,North,9,11.2,32.2,81,0.00,,,0.27,VWS V14.01,2013-05-24 01:53:00,
2013-05-23 21:58:00,40.7,35.3,30.25,North,8,11.2,32.2,81,0.00,,,0.27,VWS V14.01,2013-05-24 01:58:00,
2013-05-23 22:00:00,40.7,35.3,30.25,North,356,7.0,32.2,81,0.00,,,0.27,VWS V14.01,2013-05-24 02:00:00,
2013-05-23 22:03:00,40.6,35.2,30.25,North,360,8.4,12.6,81,0.00,,,0.27,VWS V14.01,2013-05-24 02:03:00,
2013-05-23 22:08:00,40.5,35.1,30.25,NNW,338,5.6,12.6,81,0.00,,,0.27,VWS V14.01,2013-05-24 02:08:00,
2013-05-23 22:13:00,40.4,35.0,30.26,NNW,329,8.4,14.0,81,0.00,,,0.27,VWS V14.01,2013-05-24 02:13:00,
2013-05-23 22:18:00,40.3,34.9,30.26,NNW,344,7.0,14.0,81,0.00,,,0.27,VWS V14.01,2013-05-24 02:18:00,
2013-05-23 22:23:00,40.6,34.9,30.26,North,356,5.6,14.0,80,0.00,,,0.27,VWS V14.01,2013-05-24 02:23:00,
2013-05-23 22:28:00,40.9,34.9,30.26,NNW,341,7.0,14.0,79,0.00,,,0.27,VWS V14.01,2013-05-24 02:28:00,
2013-05-23 22:33:00,41.3,35.0,30.26,NW,312,4.2,14.0,78,0.00,,,0.27,VWS V14.01,2013-05-24 02:33:00,
2013-05-23 22:38:00,41.7,35.4,30.27,NNE,32,8.4,14.0,78,0.00,,,0.27,VWS V14.01,2013-05-24 02:38:00,
2013-05-23 22:43:00,42.4,34.7,30.27,NNW,339,2.8,14.0,74,0.00,,,0.27,VWS V14.01,2013-05-24 02:43:00,
2013-05-23 22:48:00,42.7,34.3,30.27,NE,39,4.2,14.0,72,0.00,,,0.27,VWS V14.01,2013-05-24 02:48:00,
2013-05-23 22:53:00,42.7,34.3,30.27,NNW,340,2.8,14.0,72,0.00,,,0.27,VWS V14.01,2013-05-24 02:53:00,
2013-05-23 22:58:00,42.6,34.2,30.27,NE,39,5.6,14.0,72,0.00,,,0.27,VWS V14.01,2013-05-24 02:58:00,
2013-05-23 23:00:00,40.7,35.3,30.25,North,356,7.0,32.2,81,0.00,,,0.27,VWS V14.01,2013-05-24 03:00:00,
2013-05-23 23:03:00,42.6,34.2,30.27,NNW,334,2.8,14.0,72,0.00,,,0.27,VWS V14.01,2013-05-24 03:03:00,
2013-05-23 23:08:00,42.5,33.8,30.27,NE,39,5.6,14.0,71,0.00,,,0.27,VWS V14.01,2013-05-24 03:08:00,
2013-05-23 23:13:00,42.5,33.4,30.28,NNE,16,5.6,14.0,70,0.00,,,0.27,VWS V14.01,2013-05-24 03:13:00,
2013-05-23 23:18:00,42.4,33.0,30.28,WNW,285,1.4,14.0,69,0.00,,,0.27,VWS V14.01,2013-05-24 03:18:00,
2013-05-23 23:23:00,42.3,33.2,30.28,North,357,4.2,14.0,70,0.00,,,0.27,VWS V14.01,2013-05-24 03:23:00,
2013-05-23 23:28:00,42.2,33.5,30.28,NNW,340,7.0,14.0,71,0.00,,,0.27,VWS V14.01,2013-05-24 03:28:00,
2013-05-23 23:33:00,42.2,33.5,30.28,NNE,18,12.6,14.0,71,0.00,,,0.27,VWS V14.01,2013-05-24 03:33:00,
2013-05-23 23:38:00,42.1,33.4,30.28,NNE,32,11.2,14.0,71,0.00,,,0.27,VWS V14.01,2013-05-24 03:38:00,
2013-05-23 23:43:00,42.0,33.6,30.29,NE,43,7.0,14.0,72,0.00,,,0.27,VWS V14.01,2013-05-24 03:43:00,
2013-05-23 23:48:00,41.8,33.1,30.29,NNE,15,5.6,14.0,71,0.00,,,0.27,VWS V14.01,2013-05-24 03:48:00,
2013-05-23 23:53:00,41.6,33.6,30.29,North,354,4.2,14.0,73,0.00,,,0.27,VWS V14.01,2013-05-24 03:53:00,
2013-05-23 23:58:00,41.5,33.2,30.29,NNW,334,1.4,14.0,72,0.00,,,0.27,VWS V14.01,2013-05-24 03:58:00,